Weather History for Fort Myers, FL

Change the Weather History Date:

Wednesday, December 19, 2012

  Actual Average Record
Temperature  
Mean Temperature 69 °F 66 °F  
Max Temperature 82 °F 76 °F 88 °F (1990)
Min Temperature 55 °F 56 °F 35 °F (1988)
Degree Days  
Heating Degree Days 0 3  
Month to date heating degree days 0 35  
Since 1 July heating degree days 15 53  
Cooling Degree Days 4 4  
Month to date cooling degree days 134 83  
Year to date cooling degree days 4347 3946  
Growing Degree Days 18 (Base 50)    
Moisture  
Dew Point 55 °F    
Average Humidity 68    
Maximum Humidity 93    
Minimum Humidity 35    
Precipitation  
Precipitation 0.00 in 0.06 in 0.96 in (1916)
Month to date precipitation 1.87 0.97  
Year to date precipitation 49.30 55.19  
Sea Level Pressure  
Sea Level Pressure 30.06 in    
Wind  
Wind Speed 2 mph (NE)    
Max Wind Speed 9 mph    
Max Gust Speed 14 mph    
Visibility 10 miles    
Events      
T = Trace of Precipitation, MM = Missing Value Source: NWS Daily Summary

Daily Weather History Graph

Daily Weather History Graph

Search for Another Location

Airport:

Trip Planner

Search our weather history database for the weather conditions in past years. The results will help you decide how hot, cold, wet, or windy it might be!

Date:

Astronomy

Dec. 19, 2012 Rise Set
Actual Time 7:10 AM EST 5:39 PM EST
Civil Twilight 6:45 AM EST 6:04 PM EST
Nautical Twilight 6:16 AM EST 6:33 PM EST
Astronomical Twilight 5:47 AM EST 7:01 PM EST
Moon 11:55 AM EST (12/19) No Moon Set
Length of Visible Light 11h 19m
Length of Day
10h 28m
Waxing Crescent, 45% of the Moon is Illuminated
Dec 19
Waxing Crescent
Dec 20
First Quarter
Dec 28
Full
Jan 4
Last Quarter
Jan 11
New

Hourly Weather History & Observations

Time (EST) Temp. Heat Index Dew Point Humidity Pressure Visibility Wind Dir Wind Speed Gust Speed Precip Events Conditions
12:53 AM 63.0 °F - 61.0 °F 93% 30.04 in 10.0 mi Calm Calm - N/A   Clear
1:53 AM 62.1 °F - 60.1 °F 93% 30.04 in 9.0 mi Calm Calm - N/A   Clear
2:53 AM 61.0 °F - 57.9 °F 90% 30.04 in 10.0 mi Calm Calm - N/A   Clear
3:53 AM 60.1 °F - 57.0 °F 90% 30.04 in 10.0 mi North 4.6 mph - N/A   Clear
4:53 AM 57.9 °F - 54.0 °F 87% 30.04 in 10.0 mi NE 4.6 mph - N/A   Clear
5:53 AM 57.0 °F - 52.0 °F 83% 30.05 in 10.0 mi ENE 3.5 mph - N/A   Clear
6:53 AM 55.9 °F - 53.1 °F 90% 30.06 in 10.0 mi Calm Calm - N/A   Clear
7:53 AM 57.0 °F - 53.1 °F 87% 30.08 in 10.0 mi NE 4.6 mph - N/A   Clear
8:53 AM 62.1 °F - 53.1 °F 72% 30.10 in 10.0 mi ENE 6.9 mph - N/A   Clear
9:53 AM 66.9 °F - 51.1 °F 57% 30.12 in 10.0 mi East 5.8 mph - N/A   Clear
10:53 AM 72.0 °F - 50.0 °F 46% 30.12 in 10.0 mi ENE 5.8 mph - N/A   Clear
11:53 AM 75.9 °F - 52.0 °F 43% 30.10 in 10.0 mi NNE 3.5 mph - N/A   Clear
12:53 PM 77.0 °F - 54.0 °F 45% 30.06 in 10.0 mi Calm Calm - N/A   Clear
1:53 PM 80.1 °F 80.0 °F 54.0 °F 40% 30.04 in 10.0 mi Calm Calm - N/A   Clear
2:53 PM 80.1 °F 80.1 °F 55.0 °F 42% 30.04 in 10.0 mi NW 4.6 mph - N/A   Clear
3:53 PM 81.0 °F - 51.1 °F 35% 30.04 in 10.0 mi NW 4.6 mph - N/A   Clear
4:53 PM 80.1 °F - 50.0 °F 35% 30.04 in 10.0 mi Calm Calm - N/A   Clear
5:53 PM 73.0 °F - 55.9 °F 55% 30.05 in 10.0 mi Calm Calm - N/A   Clear
6:53 PM 70.0 °F - 57.9 °F 65% 30.06 in 10.0 mi NNW 3.5 mph - N/A   Clear
7:53 PM 66.0 °F - 57.9 °F 75% 30.07 in 10.0 mi East 3.5 mph - N/A   Clear
8:53 PM 64.9 °F - 57.0 °F 75% 30.07 in 10.0 mi Calm Calm - N/A   Clear
9:53 PM 64.0 °F - 57.0 °F 78% 30.07 in 10.0 mi Calm Calm - N/A   Clear
10:53 PM 61.0 °F - 55.9 °F 83% 30.08 in 10.0 mi Calm Calm - N/A   Clear
11:53 PM 62.1 °F - 55.0 °F 78% 30.07 in 10.0 mi East 3.5 mph - N/A   Clear